Simultaneous Nadir Overpasses (SNOs) Predictions

Prediction of SNOs between FY3D and TERRA Satellite Orbit:

Table of predicted SNOs for the next 14.0 days since TLE Epoch: 4/16/2022
Index Date (FY3D) Time (FY3D) Lat,Lon (FY3D) SZA (FY3D ) Date (TERRA) Time (TERRA) Lat,Lon (TERRA) SZA (TERRA ) Distance(km) Time Diff (sec)
1 04/16/2022 19:39:00 71.85,-115.99 61.42 04/16/2022 19:40:09 71.74,-114.29 61.31 60.49 69
2 04/16/2022 20:29:32 -71.20, 52.50 119.25 04/16/2022 20:29:47 -71.18, 52.44 119.27 2.79 15
3 04/16/2022 21:20:17 71.10,-140.03 60.65 04/16/2022 21:19:14 71.09,-140.06 60.63 2.09 63
4 04/19/2022 11:06:03 -71.70,-167.47 119.66 04/19/2022 11:07:13 -71.58,-166.33 119.78 42.03 70
5 04/19/2022 11:56:40 71.20, 0.74 59.83 04/19/2022 11:56:45 71.21, 0.71 59.84 1.26 5
6 04/19/2022 12:47:23 -71.11, 168.20 120.27 04/19/2022 12:46:15 -71.09, 168.16 120.30 3.08 68
7 04/22/2022 02:33:03 71.35, 141.40 59.10 04/22/2022 02:34:15 71.31, 141.47 59.05 5.34 72
8 04/22/2022 03:23:45 -71.21, -51.02 121.07 04/22/2022 03:23:45 -71.19, -51.08 121.08 2.37 0
9 04/22/2022 04:14:26 70.92, 116.78 58.63 04/22/2022 04:13:14 70.98, 116.23 58.70 21.22 72
10 04/24/2022 18:00:08 -71.31, 89.73 121.83 04/24/2022 18:01:16 -71.29, 89.66 121.86 3.59 68
11 04/24/2022 18:50:53 71.23,-102.83 58.09 04/24/2022 18:50:42 71.23,-102.78 58.09 1.78 11
12 04/24/2022 19:41:29 -70.77, 65.28 122.39 04/24/2022 19:40:18 -70.80, 64.17 122.37 40.54 71
13 04/27/2022 09:27:15 71.30, 38.00 57.31 04/27/2022 09:28:13 71.31, 37.93 57.32 2.70 58
14 04/27/2022 10:17:59 -71.24,-154.59 122.77 04/27/2022 10:17:42 -71.25,-154.52 122.75 2.86 17
15 04/27/2022 11:08:29 70.39, 14.14 56.38 04/27/2022 11:07:22 70.43, 11.87 56.42 84.81 67
16 04/30/2022 00:54:21 -71.30, -13.76 123.52 04/30/2022 00:55:13 -71.31, -13.83 123.51 2.88 52
17 04/30/2022 01:45:06 71.24, 153.65 56.41 04/30/2022 01:44:39 71.25, 153.72 56.43 3.03 27



Historial Predications of SNOs between FY3D and TERRA
